Location: Mohawk View
(42.7837°N, 73.7885°W)
Time: 11:48:31
(UTC+00:00)

Cosmos 2058 Rocket - Pass Details

Date: 17 June 2021
Orbit: 609 x 640 km, 82.5° (Epoch: 27 July)

Event Time Altitude Azimuth Distance (km) Brightness Sun altitude
Rises 04:10:25 0° 353° (N) 2,930 8.0 -23.0°
Reaches altitude 10° 04:12:41 10° 356° (N) 2,013 6.8 -23.1°
Maximum altitude 04:17:08 72° 81° (E) 659 3.1 -23.2°
Enters shadow 04:17:22 70° 108° (ESE) 667 3.0 -23.2°
